Simultaneous Nadir Overpasses (SNOs) Predictions

Prediction of SNOs between GOES-14 and NPP Satellite Orbit:

Table of predicted SNOs for the next 14.0 days since TLE Epoch: 4/8/2023
Index Date Time (GOES-14) GOES-14 Lat,Lon NPP Lat,Lon Distance(km) Time Diff (sec)
1 04/08/2023 20:54:41 -0.16,-108.12 -1.03,-111.95 436.75 80
2 04/09/2023 20:38:37 -0.17,-108.13 0.01,-107.42 80.85 80
3 04/12/2023 08:41:41 0.17,-108.12 0.21,-108.15 4.52 80
4 04/14/2023 20:42:15 -0.18,-108.14 -0.35,-108.92 88.97 80
5 04/15/2023 20:26:11 -0.18,-108.15 0.64,-104.38 428.56 80
6 04/17/2023 08:48:00 0.18,-108.15 0.49,-109.66 171.11 80
7 04/18/2023 08:26:35 0.18,-108.16 -0.50,-105.12 345.73 80
8 04/19/2023 20:48:33 -0.18,-108.16 -0.67,-110.43 257.63 80
9 04/20/2023 20:32:28 -0.18,-108.17 0.32,-105.89 260.11 80
